This is the latest recevied weather packets stored in our database for station/object N4JTC. If no packets are shown the sender has not sent any weather packets the latest 10 day(s).
| Time | Temp. | Humidity | Pressure | Rain* | Wind** | Luminosity | Snow |
|---|---|---|---|---|---|---|---|
| 1777935903 | 24.44° C | 51% | 1016 hPa | 0 mm | - | 146 W/m² | - |
| 1777935302 | 23.89° C | 52% | 1016.2 hPa | 0 mm | - | 185 W/m² | - |
| 1777935003 | 23.89° C | 52% | 1016.2 hPa | 0 mm | - | 202 W/m² | - |
| 1777934703 | 24.44° C | 54% | 1016.5 hPa | 0 mm | - | 221 W/m² | - |
| 1777934403 | 24.44° C | 54% | 1016.3 hPa | 0 mm | - | 239 W/m² | - |
| 1777934102 | 24.44° C | 54% | 1016.4 hPa | 0 mm | - | 258 W/m² | - |
| 1777933804 | 24.44° C | 52% | 1016.1 hPa | 0 mm | - | 276 W/m² | - |
| 1777933502 | 24.44° C | 54% | 1016.3 hPa | 0 mm | - | 290 W/m² | - |
| 1777932903 | 24.44° C | 52% | 1016.2 hPa | 0 mm | - | 329 W/m² | - |
| 1777932603 | 24.44° C | 50% | 1016.3 hPa | 0 mm | - | 348 W/m² | - |
| 1777932303 | 24.44° C | 49% | 1016.2 hPa | 0 mm | - | 370 W/m² | - |
| 1777932004 | 24.44° C | 51% | 1016.2 hPa | 0 mm | - | 383 W/m² | - |
| 1777931703 | 24.44° C | 49% | 1016.3 hPa | 0 mm | - | 402 W/m² | - |
| 1777931103 | 25° C | 48% | 1016.1 hPa | 0 mm | - | 424 W/m² | - |
| 1777930803 | 24.44° C | 50% | 1016.2 hPa | 0 mm | - | 442 W/m² | - |
| 1777930503 | 24.44° C | 49% | 1016.3 hPa | 0 mm | - | 456 W/m² | - |
| 1777930202 | 25° C | 50% | 1016 hPa | 0 mm | - | 492 W/m² | - |
| 1777929903 | 25° C | 50% | 1016.3 hPa | 0 mm | - | 511 W/m² | - |
| 1777929603 | 25° C | 47% | 1016.1 hPa | 0 mm | - | 429 W/m² | - |
| 1777929303 | 24.44° C | 50% | 1016.2 hPa | 0 mm | - | 457 W/m² | - |
| 1777929003 | 25° C | 50% | 1016.2 hPa | 0 mm | - | 543 W/m² | - |
| 1777928703 | 24.44° C | 48% | 1016.2 hPa | 0 mm | - | 519 W/m² | - |
| 1777928403 | 25.56° C | 48% | 1016 hPa | 0 mm | - | 528 W/m² | - |
| 1777928102 | 25° C | 48% | 1016.4 hPa | 0 mm | - | 567 W/m² | - |
| 1777927803 | 25.56° C | 47% | 1016.2 hPa | 0 mm | - | 581 W/m² | - |
* Rain latest hour (hover to see other rain measurements)
** Current wind speed in m/s (hover to see current wind gust speed)